DW8873 Weather Reports


Display with metric or nautical units.
time (UTC)temp
F
wind
direction
speed
MPH
gust
MPH
rain 1hr
in
rain 24hr
in
rain mn
in
humidity
%
barometer
mb
20260505112609 58 130 0.0 0.0 0.00 0.00 0.00 84 1020.4
20260505111608 58 130 0.0 0.0 0.00 0.00 0.00 84 1020.4
20260505110606 58 130 0.0 1.0 0.00 0.00 0.00 84 1020.4
20260505101558 60 130 0.0 1.0 0.00 0.00 0.00 79 1019.7
20260505100557 60 130 0.0 2.0 0.00 0.00 0.00 78 1019.7
20260505095524 60 130 0.0 2.0 0.00 0.00 0.00 77 1019.7
20260505094349 61 130 0.0 2.0 0.00 0.00 0.00 76 1019.3
20260505093348 61 130 0.0 2.0 0.00 0.00 0.00 74 1019.3
20260505092346 62 127 0.0 1.0 0.00 0.00 0.00 72 1019.0
20260505091313 62 127 1.0 1.0 0.00 0.00 0.00 69 1019.0
20260505090210 63 127 0.0 0.0 0.00 0.00 0.00 67 1018.7
20260505085136 64 127 0.0 2.0 0.00 0.00 0.00 65 1018.7
20260505084134 65 127 0.0 2.0 0.00 0.00 0.00 63 1018.7
20260505083133 66 127 0.0 1.0 0.00 0.00 0.00 59 1018.7
20260505082131 66 127 0.0 2.0 0.00 0.00 0.00 55 1018.3
20260505081129 67 127 1.0 3.0 0.00 0.00 0.00 53 1018.3
20260505080128 67 127 2.0 4.0 0.00 0.00 0.00 52 1018.0
20260505075126 67 119 2.0 5.0 0.00 0.00 0.00 52 1018.0
20260505074125 67 114 1.0 6.0 0.00 0.00 0.00 53 1017.7
20260505073123 68 112 2.0 3.0 0.00 0.00 0.00 54 1017.7
20260505072122 68 120 1.0 4.0 0.00 0.00 0.00 53 1017.3
20260505071121 69 119 2.0 5.0 0.00 0.00 0.00 53 1017.3
20260505070119 69 143 1.0 8.0 0.00 0.00 0.00 52 1017.0
20260505065117 70 126 1.0 8.0 0.00 0.00 0.00 52 1017.0
20260505064045 71 135 2.0 6.0 0.00 0.00 0.00 52 1016.7
20260505063043 71 181 3.0 4.0 0.00 0.00 0.00 49 1016.3
20260505062041 72 208 1.0 2.0 0.00 0.00 0.00 45 1016.3
20260505061040 72 207 1.0 2.0 0.00 0.00 0.00 45 1016.3
20260505060038 72 204 1.0 3.0 0.00 0.00 0.00 43 1016.3
20260505055036 72 203 1.0 4.0 0.00 0.00 0.00 43 1016.3
20260505054004 72 260 0.0 4.0 0.00 0.00 0.00 43 1016.3
20260505052931 72 185 2.0 4.0 0.00 0.00 0.00 42 1016.3
20260505051929 73 291 1.0 4.0 0.00 0.01 0.00 44 1016.3
20260505050826 74 267 2.0 4.0 0.00 0.01 0.00 43 1016.4
20260505040815 76 285 2.0 4.0 0.00 0.02 0.00 43 1016.0
20260505035814 76 247 0.0 5.0 0.00 0.02 0.00 44 1016.0
20260505034742 75 231 2.0 5.0 0.00 0.02 0.00 43 1016.0
20260505033740 75 251 2.0 4.0 0.00 0.02 0.00 43 1016.0
20260505032739 75 193 1.0 6.0 0.00 0.02 0.00 45 1016.4
20260505031738 75 267 2.0 7.0 0.00 0.03 0.00 45 1016.4
20260505030736 74 331 1.0 7.0 0.00 0.03 0.00 45 1016.4
20260505025735 74 306 1.0 5.0 0.00 0.03 0.00 45 1016.4
20260505024734 74 257 2.0 6.0 0.00 0.04 0.00 46 1016.7
20260505023732 73 253 2.0 6.0 0.00 0.04 0.00 47 1016.7
20260505022730 73 264 2.0 8.0 0.00 0.05 0.00 47 1016.7
20260505021729 72 266 2.0 9.0 0.00 0.05 0.00 48 1016.7
20260505020656 71 248 2.0 9.0 0.00 0.06 0.00 49 1016.7
20260505015654 71 166 2.0 8.0 0.00 0.06 0.00 50 1016.7
20260505014653 71 285 3.0 8.0 0.00 0.06 0.00 49 1017.0
20260505013620 70 276 2.0 7.0 0.00 0.06 0.00 51 1017.4
20260505012619 70 245 2.0 9.0 0.00 0.06 0.00 51 1017.4
20260505011617 70 267 3.0 9.0 0.00 0.06 0.00 52 1017.4
20260505010615 69 286 2.0 8.0 0.00 0.06 0.00 54 1017.7
20260505005614 68 257 3.0 11.0 0.00 0.06 0.00 55 1017.7
20260505004613 68 263 2.0 11.0 0.00 0.06 0.00 57 1018.0
20260505003611 68 324 0.0 8.0 0.00 0.06 0.00 56 1018.0
20260505002609 68 263 4.0 8.0 0.00 0.06 0.00 55 1018.0
20260505001608 68 297 8.0 8.0 0.00 0.06 0.00 57 1018.0
20260505000535 68 280 0.0 0.0 0.00 0.06 0.00 58 1018.0
20260504235534 67 205 0.0 0.0 0.00 0.06 0.00 58 1018.0
20260504234532 67 268 0.0 0.0 0.00 0.06 0.00 59 1018.4
20260504233531 68 325 0.0 0.0 0.00 0.06 0.00 58 1018.4
20260504232530 68 212 0.0 0.0 0.00 0.06 0.00 60 1018.7
20260504231528 68 262 0.0 0.0 0.00 0.06 0.00 61 1018.4
20260504230526 67 31 0.0 0.0 0.00 0.06 0.00 61 1018.4
20260504225453 66 237 0.0 0.0 0.00 0.06 0.00 62 1018.4
20260504224452 66 303 0.0 0.0 0.00 0.06 0.00 61 1018.0
20260504223450 66 265 0.0 0.0 0.00 0.06 0.00 64 1018.0
20260504222449 67 262 0.0 0.0 0.00 0.06 0.00 66 1018.4
20260504221344 66 180 0.0 0.0 0.00 0.06 0.00 70 1018.4
20260504220312 64 180 0.0 0.0 0.00 0.06 0.00 75 1018.4
20260504215311 62 180 0.0 0.0 0.00 0.06 0.00 80 1018.0
20260504214309 61 180 0.0 0.0 0.00 0.06 0.00 84 1017.7
20260504213308 59 180 0.0 0.0 0.00 0.06 0.00 90 1017.3
20260504212306 58 220 0.0 0.0 0.00 0.06 0.00 91 1017.7
20260504211305 57 220 0.0 0.0 0.00 0.06 0.00 92 1017.3
20260504210303 56 220 0.0 0.0 0.00 0.06 0.00 92 1017.3
20260504205303 56 220 0.0 0.0 0.00 0.06 0.00 91 1017.0
20260504204229 56 220 0.0 0.0 0.00 0.06 0.00 90 1017.0
20260504203228 57 220 0.0 0.0 0.00 0.06 0.00 90 1017.0
20260504202226 57 220 0.0 0.0 0.00 0.06 0.00 89 1016.6
20260504201224 57 220 0.0 0.0 0.00 0.06 0.00 90 1016.6
20260504200223 57 220 0.0 0.0 0.00 0.06 0.00 90 1016.6
20260504195150 57 214 0.0 0.0 0.00 0.06 0.00 90 1016.3
20260504194117 57 214 0.0 0.0 0.00 0.06 0.00 89 1016.3
20260504193116 57 214 0.0 0.0 0.00 0.06 0.00 89 1016.0
20260504192114 58 214 0.0 0.0 0.00 0.06 0.00 89 1016.3
20260504191042 58 214 0.0 0.0 0.00 0.06 0.00 89 1016.0
20260504190009 58 214 0.0 0.0 0.00 0.06 0.00 88 1016.0
20260504184936 58 214 0.0 0.0 0.00 0.06 0.00 88 1016.0
20260504183935 59 214 0.0 0.0 0.00 0.06 0.00 87 1015.6
20260504182933 59 214 0.0 0.0 0.00 0.06 0.00 86 1015.6
20260504181931 59 214 0.0 0.0 0.00 0.06 0.00 85 1015.3
20260504180930 59 214 0.0 0.0 0.00 0.06 0.00 85 1015.3
20260504175928 60 214 0.0 0.0 0.00 0.06 0.00 85 1015.3
20260504174927 60 214 0.0 0.0 0.00 0.06 0.06 85 1015.3
20260504173925 60 214 0.0 0.0 0.00 0.06 0.06 84 1015.3
20260504172923 61 214 0.0 0.0 0.00 0.06 0.06 83 1015.3
20260504171921 61 214 0.0 0.0 0.00 0.06 0.06 82 1015.7
20260504170919 61 214 0.0 0.0 0.00 0.06 0.06 82 1015.7
20260504150728 64 185 0.0 0.0 0.00 0.06 0.06 87 1015.7
20260504140648 64 261 0.0 0.0 0.00 0.06 0.06 88 1015.3
20260504130607 66 175 0.0 0.0 0.00 0.06 0.06 84 1015.3